Main page
METAR-TAF:

METAR-TAF

Airports :

General Ulpiano Paez Airport

Salinas, Ecuador

latitude: 02-12-18S, longitude: 080-59-20W, elevation: 5 m

Current weather observation

The report was made 51 minutes ago, at 23:00 UTC
Wind 8 kt from the West/Southwest
Temperature 23°C
Humidity 83%
Pressure 1010 hPa
Visibility 10 km or more
Broken clouds at a height of 1000 ft
Overcast at a height of 1300 ft

METAR: SESA 042300Z 24008KT 9999 BKN010 OVC013 23/20 Q1010 RMK A2985

Time: 18:51 (23:51 UTC)


TAF: missing

Weather observations and forecasts of more than 4000 airports (METAR and TAF reports).

The available stations are represented by yellow and red dots on the map.

Hover mouse over dot to see the name of the station.

Then click to see weather observations and forecasts.

To change the map : click on the green buttons with a black cross to zoom in, on the green button with a dash to zoom out, or on the green arrows for adjacent maps.


METAR-TAF: